| time (UTC) | temp F | wind direction | speed knots | gust knots | rain 1hr in | rain 24hr in | rain mn in | humidity % | barometer mb |
| 20260905053023 | 54 | 103 | 0.9 | 3.5 | 0.00 | 0.03 | 0.03 | 100 | 1017.3 |
| 20260905051528 | 53 | 62 | 0.0 | 0.0 | 0.00 | 0.03 | 0.03 | 100 | 1017.2 |
| 20260905050021 | 54 | 62 | 0.0 | 2.6 | 0.00 | 0.03 | 0.03 | 100 | 1017.1 |
| 20260905044528 | 54 | 74 | 0.0 | 0.9 | 0.00 | 0.03 | 0.03 | 100 | 1017.1 |
| 20260905043020 | 55 | 74 | 0.0 | 4.3 | 0.00 | 0.03 | 0.03 | 100 | 1017.1 |
| 20260905041520 | 54 | 118 | 0.0 | 0.0 | 0.00 | 0.03 | 0.03 | 100 | 1017.1 |
| 20260905040018 | 55 | 118 | 0.0 | 0.0 | 0.00 | 0.03 | 0.03 | 100 | 1017.1 |
| 20260905034518 | 55 | 118 | 0.0 | 0.9 | 0.00 | 0.03 | 0.03 | 100 | 1017.1 |
| 20260905033116 | 55 | 118 | 0.9 | 3.5 | 0.00 | 0.03 | 0.03 | 100 | 1016.9 |
| 20260905031515 | 55 | 149 | 0.0 | 0.0 | 0.00 | 0.03 | 0.03 | 100 | 1016.9 |
| 20260905030015 | 56 | 150 | 0.0 | 0.0 | 0.00 | 0.03 | 0.03 | 100 | 1016.7 |
| 20260905024515 | 57 | 150 | 0.0 | 0.0 | 0.00 | 0.03 | 0.03 | 99 | 1016.4 |
| 20260905023019 | 58 | 143 | 0.0 | 0.0 | 0.00 | 0.03 | 0.03 | 99 | 1016.4 |
| 20260905021512 | 59 | 130 | 0.0 | 0.0 | 0.00 | 0.03 | 0.03 | 99 | 1016.5 |
| 20260905020012 | 60 | 130 | 0.0 | 0.0 | 0.00 | 0.03 | 0.03 | 99 | 1016.7 |
| 20260905014511 | 60 | 129 | 0.0 | 0.0 | 0.00 | 0.03 | 0.03 | 99 | 1016.5 |
| 20260905013012 | 60 | 129 | 0.0 | 0.0 | 0.00 | 0.03 | 0.03 | 99 | 1016.5 |
| 20260905011514 | 60 | 129 | 0.0 | 0.0 | 0.01 | 0.03 | 0.03 | 99 | 1016.2 |
| 20260905010008 | 61 | 129 | 0.0 | 0.0 | 0.02 | 0.04 | 0.03 | 99 | 1016.2 |
| 20260905004506 | 61 | 129 | 0.0 | 0.0 | 0.03 | 0.04 | 0.03 | 98 | 1016.0 |
| 20260905003010 | 61 | 129 | 0.0 | 0.0 | 0.03 | 0.04 | 0.03 | 97 | 1015.9 |
| 20260905001510 | 61 | 85 | 0.0 | 1.7 | 0.02 | 0.03 | 0.02 | 94 | 1016.0 |
| 20260905000005 | 62 | 174 | 0.0 | 0.9 | 0.01 | 0.14 | 0.01 | 90 | 1015.9 |
| 20260904234503 | 63 | 172 | 0.0 | 1.7 | 0.00 | 0.13 | 0.00 | 90 | 1015.6 |
| 20260904233002 | 64 | 185 | 0.0 | 5.2 | 0.00 | 0.13 | 0.00 | 89 | 1015.5 |
| 20260904231501 | 65 | 219 | 0.9 | 3.5 | 0.00 | 0.13 | 0.00 | 88 | 1015.3 |
| 20260904230110 | 66 | 227 | 0.0 | 3.5 | 0.00 | 0.13 | 0.00 | 84 | 1015.2 |
| 20260904224559 | 66 | 151 | 0.0 | 0.0 | 0.00 | 0.13 | 0.00 | 80 | 1015.0 |
| 20260904223104 | 67 | 45 | 0.0 | 0.0 | 0.00 | 0.13 | 0.00 | 76 | 1014.9 |
| 20260904221600 | 66 | 4 | 0.0 | 3.5 | 0.00 | 0.13 | 0.00 | 77 | 1014.9 |
| 20260904220116 | 67 | 5 | 1.7 | 9.6 | 0.00 | 0.13 | 0.00 | 75 | 1014.7 |
| 20260904214553 | 67 | 5 | 0.0 | 3.5 | 0.00 | 0.13 | 0.00 | 78 | 1014.6 |
| 20260904213052 | 67 | 70 | 0.0 | 6.1 | 0.00 | 0.13 | 0.00 | 77 | 1014.5 |
| 20260904211551 | 66 | 41 | 0.0 | 2.6 | 0.00 | 0.13 | 0.00 | 79 | 1014.6 |
| 20260904210050 | 65 | 27 | 0.9 | 7.0 | 0.00 | 0.13 | 0.00 | 81 | 1014.6 |
| 20260904204551 | 66 | 50 | 0.0 | 2.6 | 0.00 | 0.13 | 0.00 | 78 | 1014.6 |
| 20260904203048 | 67 | 18 | 0.0 | 4.3 | 0.00 | 0.13 | 0.00 | 76 | 1014.7 |
| 20260904201553 | 67 | 78 | 0.0 | 7.8 | 0.00 | 0.13 | 0.00 | 73 | 1014.5 |
| 20260904200054 | 67 | 19 | 1.7 | 7.0 | 0.00 | 0.14 | 0.00 | 73 | 1014.5 |
| 20260904194548 | 67 | 26 | 0.9 | 5.2 | 0.00 | 0.14 | 0.00 | 78 | 1014.4 |
| 20260904193041 | 66 | 132 | 2.6 | 7.8 | 0.00 | 0.14 | 0.00 | 76 | 1014.6 |
| 20260904191539 | 65 | 111 | 0.0 | 8.7 | 0.00 | 0.14 | 0.00 | 77 | 1014.7 |
| 20260904190038 | 65 | 113 | 3.5 | 11.3 | 0.00 | 0.14 | 0.00 | 75 | 1014.6 |
| 20260904184600 | 64 | 132 | 2.6 | 9.6 | 0.00 | 0.14 | 0.00 | 80 | 1014.6 |
| 20260904183039 | 64 | 85 | 1.7 | 7.8 | 0.00 | 0.14 | 0.00 | 80 | 1014.6 |
| 20260904181535 | 64 | 72 | 1.7 | 10.4 | 0.00 | 0.14 | 0.00 | 80 | 1014.6 |
| 20260904180030 | 64 | 95 | 2.6 | 9.6 | 0.00 | 0.14 | 0.00 | 83 | 1014.6 |
| 20260904174600 | 63 | 21 | 2.6 | 9.6 | 0.00 | 0.14 | 0.00 | 84 | 1014.5 |
| 20260904173025 | 62 | 133 | 0.0 | 5.2 | 0.00 | 0.14 | 0.00 | 92 | 1014.5 |
| 20260904171522 | 61 | 114 | 0.0 | 4.3 | 0.00 | 0.14 | 0.00 | 93 | 1014.4 |
| 20260904170036 | 59 | 95 | 0.0 | 3.5 | 0.00 | 0.22 | 0.00 | 97 | 1014.3 |
| 20260904164516 | 57 | 68 | 0.0 | 3.5 | 0.00 | 0.22 | 0.00 | 98 | 1014.4 |
| 20260904163011 | 56 | 80 | 0.0 | 1.7 | 0.00 | 0.22 | 0.00 | 100 | 1014.4 |
| 20260904161509 | 55 | 43 | 0.0 | 0.0 | 0.00 | 0.22 | 0.00 | 100 | 1014.4 |
| 20260904160006 | 55 | 38 | 0.0 | 0.9 | 0.00 | 0.30 | 0.00 | 100 | 1014.3 |
| 20260904154503 | 54 | 68 | 0.0 | 0.0 | 0.00 | 0.30 | 0.00 | 100 | 1014.2 |
| 20260904153128 | 53 | 68 | 0.0 | 0.9 | 0.00 | 0.30 | 0.00 | 100 | 1014.0 |
| 20260904151605 | 51 | 41 | 0.0 | 0.0 | 0.00 | 0.30 | 0.00 | 100 | 1013.7 |
| 20260904150056 | 51 | 41 | 0.0 | 0.0 | 0.00 | 0.32 | 0.00 | 100 | 1013.7 |
| 20260904144556 | 50 | 41 | 0.0 | 0.0 | 0.00 | 0.32 | 0.00 | 100 | 1013.7 |
| 20260904143054 | 49 | 41 | 0.0 | 0.0 | 0.00 | 0.32 | 0.00 | 100 | 1013.5 |
| 20260904141552 | 49 | 90 | 0.0 | 0.0 | 0.00 | 0.32 | 0.00 | 100 | 1013.3 |
| 20260904140050 | 49 | 90 | 0.0 | 0.0 | 0.00 | 0.42 | 0.00 | 100 | 1013.0 |
| 20260904134548 | 48 | 90 | 0.0 | 0.0 | 0.00 | 0.42 | 0.00 | 100 | 1012.8 |
| 20260904133047 | 49 | 105 | 0.0 | 0.0 | 0.00 | 0.42 | 0.00 | 100 | 1012.6 |
| 20260904131545 | 49 | 105 | 0.0 | 0.0 | 0.00 | 0.42 | 0.00 | 100 | 1012.6 |
| 20260904130043 | 50 | 105 | 0.0 | 0.0 | 0.00 | 0.51 | 0.00 | 100 | 1012.7 |
| 20260904124542 | 50 | 105 | 0.0 | 0.0 | 0.00 | 0.51 | 0.00 | 100 | 1012.6 |
| 20260904123040 | 51 | 105 | 0.0 | 0.0 | 0.00 | 0.51 | 0.00 | 100 | 1012.6 |
| 20260904121640 | 51 | 102 | 0.0 | 0.0 | 0.00 | 0.51 | 0.00 | 100 | 1012.3 |
| 20260904120038 | 52 | 103 | 0.0 | 2.6 | 0.00 | 0.94 | 0.00 | 100 | 1012.2 |
| 20260904114536 | 51 | 53 | 0.0 | 0.9 | 0.00 | 0.94 | 0.00 | 100 | 1012.1 |
| 20260904113036 | 50 | 53 | 0.0 | 0.0 | 0.00 | 0.94 | 0.00 | 100 | 1012.1 |
| 20260904111535 | 51 | 53 | 0.0 | 1.7 | 0.00 | 0.94 | 0.00 | 100 | 1012.0 |
| 20260904110036 | 50 | 53 | 0.0 | 0.0 | 0.00 | 1.04 | 0.00 | 100 | 1011.9 |
| 20260904104531 | 51 | 53 | 0.0 | 0.0 | 0.00 | 1.04 | 0.00 | 100 | 1012.0 |
| 20260904103031 | 51 | 53 | 0.0 | 0.9 | 0.00 | 1.04 | 0.00 | 100 | 1012.0 |
| 20260904101530 | 51 | 52 | 0.0 | 0.0 | 0.00 | 1.04 | 0.00 | 100 | 1012.0 |
| 20260904100029 | 52 | 52 | 0.0 | 0.0 | 0.00 | 1.41 | 0.00 | 100 | 1012.1 |
| 20260904094527 | 52 | 52 | 0.0 | 0.9 | 0.00 | 1.41 | 0.00 | 100 | 1012.0 |
| 20260904093051 | 52 | 52 | 0.0 | 0.0 | 0.00 | 1.41 | 0.00 | 100 | 1012.1 |
| 20260904091527 | 52 | 52 | 0.0 | 0.9 | 0.00 | 1.41 | 0.00 | 100 | 1012.1 |
| 20260904090025 | 51 | 52 | 0.0 | 0.0 | 0.00 | 1.61 | 0.00 | 100 | 1012.1 |
| 20260904084525 | 51 | 52 | 0.0 | 0.0 | 0.00 | 1.61 | 0.00 | 100 | 1012.2 |
| 20260904083023 | 51 | 52 | 0.0 | 0.0 | 0.00 | 1.61 | 0.00 | 100 | 1012.0 |
| 20260904081521 | 52 | 53 | 0.0 | 1.7 | 0.00 | 1.61 | 0.00 | 100 | 1012.0 |
| 20260904080020 | 52 | 53 | 0.0 | 0.0 | 0.00 | 1.61 | 0.00 | 100 | 1011.7 |
| 20260904074517 | 51 | 67 | 0.0 | 1.7 | 0.00 | 1.61 | 0.00 | 100 | 1011.6 |
| 20260904073035 | 52 | 75 | 0.0 | 0.0 | 0.00 | 1.61 | 0.00 | 100 | 1011.6 |
| 20260904071515 | 52 | 75 | 0.0 | 0.0 | 0.00 | 1.61 | 0.00 | 100 | 1011.5 |
| 20260904070016 | 52 | 75 | 0.0 | 0.9 | 0.00 | 1.61 | 1.61 | 100 | 1011.5 |
| 20260904064517 | 52 | 74 | 0.0 | 0.0 | 0.00 | 1.61 | 1.61 | 100 | 1011.5 |
| 20260904063009 | 53 | 74 | 0.0 | 0.9 | 0.00 | 1.61 | 1.61 | 100 | 1011.6 |
| 20260904061511 | 53 | 85 | 0.0 | 0.9 | 0.00 | 1.61 | 1.61 | 100 | 1011.5 |
| 20260904060009 | 53 | 85 | 0.0 | 0.9 | 0.00 | 1.61 | 1.61 | 100 | 1011.4 |
| 20260904054510 | 54 | 85 | 0.0 | 4.3 | 0.00 | 1.61 | 1.61 | 100 | 1011.5 |